372  
ASUS42 KMLB 211307  
RWRMLB  
HOURLY WEATHER ROUNDUP AROUND FLORIDA  
NATIONAL WEATHER SERVICE OFFICE MELBOURNE FL  
900 AM EDT SAT OCT 21 2017  
 
CITY SKY/WX TMP DP RH WIND PRES REMARKS
 
MELBOURNE MOSUNNY 80 65 59 E15 30.13R  
FORT PIERCE CLOUDY 80 70 71 E15G22 30.11R  
ORLANDO INTL PTSUNNY 75 67 76 E9 30.14R  
DAYTONA BEACH PTSUNNY 79 68 69 E10G20 30.16R  
VERO BEACH PTSUNNY 79 68 69 E14 30.12R  

   
..ELSEWHERE ACROSS CENTRAL FLORIDA
 
 
 
CITY SKY/WX TMP DP RH WIND PRES REMARKS
 
PATRICK AFB SUNNY 80 65 61 E14 30.13R  
KSC SUNNY 79 69 69 E9 30.14R  
CAPE CANAVERAL MOSUNNY 80 66 62 E10 30.13R  
TITUSVILLE MOSUNNY 81 64 57 E12 30.15R  
ORLANDO EXEC SUNNY 75 68 78 E8 30.14R  
LEESBURG SUNNY 76 70 82 E8 30.16R  
THE VILLAGES N/A 73 72 94 MISG 30.06R  
SANFORD MOSUNNY 76 67 73 E9 30.15R  
DELAND MOSUNNY 77 68 73 E7 30.16R  
NEW SMYRNA BCH MOSUNNY 81 63 54 E12G22 30.17R  
ORMOND BEACH PTSUNNY 77 64 65 E12G18 30.16R  
WINTER HAVEN N/A N/A N/A N/A MISG 30.15R  
KISSIMMEE PTSUNNY 75 67 76 E7 30.15R  
OKEECHOBEE MOSUNNY 75 70 83 NE6 30.10R  
TAMPA PTSUNNY 76 68 76 VRB6 30.13R  

   
..NORTHERN FLORIDA
 
 
 
CITY SKY/WX TMP DP RH WIND PRES REMARKS
 
PALM COAST MOSUNNY 79 64 61 E12 30.17R  
ST AUGUSTINE SUNNY 79 64 60 E13 30.19R  
OCALA MOSUNNY 72 68 87 NE5 30.17R  
GAINESVILLE MOSUNNY 70 66 87 NE8 30.20R  
JACKSONVILLE PTSUNNY 74 69 85 N6 30.19R  
TALLAHASSEE CLOUDY 69 66 90 E9 30.19R  

   
..ALONG THE SOUTHEAST COAST TO THE KEYS
 
 
 
CITY SKY/WX TMP DP RH WIND PRES REMARKS
 
STUART PTSUNNY 82 73 74 E17G29 30.11R  
WEST PALM BCH PTSUNNY 80 74 81 E17G25 30.08R  
MIAMI CLOUDY 81 75 82 NE8 30.04R  
KEY WEST PTSUNNY 84 74 71 E14 30.01R  

   
..MARINE REPORTS
 
 
 
STATION/POSITION TIME TEMP WIND PRES WAVE SWELL
 
AIR SEA DIR/SP/G HT/PER HT/PER  
(UTC) (F) (DEG/KT/KT) (MB) (FT/S) (FT/S)  
ST AUGUSTINE FP 1300 79 77 80/ 15/ 16 1022.5R  
20NM E CAPE CANA 1250 80 81 80/ 17/ 21 1020.5R  
TRIDENT PIER 1242 79 80 80/ 8/ 12 1022.0R  
SEBASTIAN INLET 1300 79 80 70/ 17 1020.0  
4NM E PORT CANAV 1251 80 N/A 4/ 7  
6NM NE FPR INLET 1230 80 N/A 6/ 7  
SETTLEMENT PT GB 1300 80 80/ 17/ 20 1018.9R  

 
 
 
CLICK HERE TO GO TO PREVIOUS BULLETINS.

The Nexlab FL Page Main Text Page